Hobbyimkerei Kesten

Hessisch Lichtenau
eine Bienen Ranch 
im Werra Meißner Kreis

Mitglied im Imkerverein Großalmerode

Datenbank 

 In dieser Rubrik  Hyperthermie Bienen  sind teiweise vertrauliche Infos gelistet die nicht unbedingt verständlicher Weise öffentlich zugänglich sein sollten um rechtlich sauber zu bleiben.Kleine Datenbankliste um das Thema fortlaufend übersichtlich und aktuell nachvollziehbar zu halten.


 

Die ersten nach vollziehbaren Daten eines Temperaturfensters  von einem Leerrrähmchen Zargen Test Programm der Varrao kill

Hier mal primitiv ein paar Zahlen zum nachvollziehen vielleicht intressiert das jemanden hier Bei Meßpunkt 111 geht die Varroa kill in Arbeit Nach der Uhrzeit alle 10 min. kommt Temperatur und die 2 letzten Zahlen sind Luftfeuchte

110 31.01.16 09:17:47 18,6 37
111 31.01.16 09:27:47 15,5 43 Start
112 31.01.16 09:37:47 28,6 78
113 31.01.16 09:47:47 41 55
114 31.01.16 09:57:47 42,8 52
115 31.01.16 10:07:47 44,1 51
116 31.01.16 10:17:47 44,4 50
117 31.01.16 10:27:47 45,3 42
118 31.01.16 10:37:47 45,2 44
119 31.01.16 10:47:47 45,1 44
120 31.01.16 10:57:47 45,1 43
121 31.01.16 11:07:47 44,6 42
122 31.01.16 11:17:47 44,3 42
123 31.01.16 11:27:47 43,7 42
124 31.01.16 11:37:47 44 41
125 31.01.16 11:47:47 44,3 41
126 31.01.16 11:57:47 44,4 40
127 31.01.16 12:07:47 44,4 40
128 31.01.16 12:17:47 43,9 40
129 31.01.16 12:27:47 43,9 39 Ende 12:27:47
130 31.01.16 12:37:47 42,9 49
131 31.01.16 12:47:47 41,2 51
132 31.01.16 12:57:47 39,5 54
133 31.01.16 13:07:47 38 55
134 31.01.16 13:17:47 36,5 55
135 31.01.16 13:27:47 35,2 55
136 31.01.16 13:37:47 33,9 57
137 31.01.16 13:47:47 32,6 57
138 31.01.16 13:57:47 31,5 57
139 31.01.16 14:07:47 30,4 57
140 31.01.16 14:17:47 29,4 58
141 31.01.16 14:27:47 28,4 58
142 31.01.16 14:37:47 27,1 59
143 31.01.16 14:47:47 26,1 60
144 31.01.16 14:57:47 25,7 60
145 31.01.16 15:07:47 24,9 61
146 31.01.16 15:17:47 24,1 61
147 31.01.16 15:27:47 23,4 62
148 31.01.16 15:37:47 22,6 60
149 31.01.16 15:47:47 22 59
31.01.16 15:57:09 21,5 54
 


 

2016  Anschaffung Varroa kill und Inkubator Steuerung für Wärmebehandlung

2015  Besuch in Witzenhausen einer Bienensauna Vorführung 4.11. 2015

Infoliste

Nr.1 http://www.bienensauna.de/handbuch-intern/wirkung

Nr.2  http://propolis-honig.de/varroa-bekaempfung-waerme-biologisch/

Nr.3 http://hof-schnaars.de/Hobby-Imkerei/Varroa-Kill-II/

Nr.4 http://www.weser-kurier.de/region/osterholzer-kreisblatt_artikel,-Bei-gezielter-Waermebehandlung-stirbt-die-Varroa-Milbe-ab-_arid,1180557.html

Nr.5  http://www.silentfuturetec.at/index.php/varroa-kill-ii 

Nr.6 http://www.silentfuturetec.at/index.php/varroa-kill-ii/fragen-antworten

Nr.7 http://www.homeopathy.at/bienen-varroa-milbe-ganz-einfach-bekaempfen/ 

Nr.8  http://www.varroagrill.de/grill1.html

Nr.9  http://media.repro-mayr.de/83/629983.pdf

Nr.10  https://app.box.com/s/q7nnwqdsu8q6i0o7ioa9

Nr.11 https://hal.archives-ouvertes.fr/hal-00891023/document

Nr.12  http://www.beesmiling.com/produkt.html

 Nr.13 https://www.google.de/search?q=http%3A%2F%2FDownload+(9.49+MB)+-+mellifera.ch&rls=com.microsoft:de:%7Breferrer:source?%7D&ie=UTF-8&oe=UTF-8&sourceid=ie7&rlz=1I7GPEA_de&gfe_rd=cr&ei=AE-_VvrGGquH8Qe3xYXICw&gws_rd=ssl

Erster Anfang ein geplantes Beobachtungsprojekt zur Wärmebehandlung um Kenntnisse zu gewinnen. Langfristig ist die Anschaffung einer Bienensauna in der Hobbyimkerei ein Thema das auch Sinn macht

Der Anfang erstmal die Reglungsmöglichkeiten austesten und die Materie der Umsetzungsmöglichkeiten kennen zulernen und selbst bewerten zukönnen.Hierzu bietet der Handel genug Hilfsmittel und Möglichkeiten  dies preiswert aus zutesten und durch ein bisschen Bastelintresse ist vieles machbar und umsetzbar um die nötigen Erfahrungen für die Praxis zu sammeln.

Steuerungsmäßig wird im ersten Testversuch unserer Hobbyimkerei eine Reglungseinheit zum Einsatz kommen aus der Brutmaschinentechnik wo eine gewisse tauglichkeit schon nach voll ziehbar ist.Recht ideal so eine Steuereinheit wo ja aufs 0.1 Crad genau die Einstellung an gepasst werden kann und in der Einheit eine Luftfeuchtigkeitsüberwachung genutzt werden kann somit optimale Testbedingungen und durch einige Bastlerstunden sollte eine Anpassung aufs Bienenvolkleben sicherlich machbar sein und sicherlich auch preiswert vertretbar sich abwickeln lassen.